Starlink 11609

operational
NORAD ID: 63132 Int'l Des: 2025-043 Owner: SPXS Country: US Constellation: starlink
LEOCIRCULAR

Über Starlink 11609

Beschreibung wird geladen...

Live-Position

3D-Globus wird geladen...

Nächste Überflüge

Höhenverlauf

Altitude vs Time

uPlot chart will show altitude changes over time

Zweizeiliger Elementsatz

1 63132U 25043A 26035.19873916 .00311277 00000-0 23429-2 0 9992
2 63132 42.9983 92.7004 0001512 203.1849 156.8951 15.70806956 54191
Epoch: 4. Feb. 2026 • Age: 8 hours

Aktueller Status

Höhe 357.6 km
Geschwindigkeit 7.70 km/s
Subsatellitenpunkt 36.14°N, 108.85°W
Startdatum 3. März 2025
Alter 0.9 years
Typ internet

Technische Details

Klassifizierung Payload
Masse 960.00 kg
Trockenmasse 910.00 kg
Gesamtmasse 960.00 kg
Länge 0.30 m
Durchmesser 4.10 m
Spannweite 29.00 m
Form Box + pan
Hersteller SPXS
Bus-Typ Starlink V2MD
Phasenstatus In Orbit
Besitzer/Staat SPXS/US

Große Konstellationen

Loading constellations...